loading
DOY 175 | 2024-06-23T10:23:24Z
Showing default

COSMOS 2433 (GLONASS), 32275

Orbit data source: Space-Track

COSMOS 2433 (GLONASS), 32275 is a Commonwealth of Independent States-origin payload satellite in MEO that was launched on Fri, 26 Oct 2007 UTC via a Proton-K/DM-2 launch vehicle from the Tyuratam Missile And Space Complex (TTMTR). Payloads include a variety of satellites, spacecraft, and rockets equipped with specific instruments for various scientific and technological missions. These include communications satellites like Starlink; space stations such as the ISS; scientific satellites like the Hubble; Earth observation satellites from companies like Planet Labs, Umbra, and HawkEye 360; GPS; miniature CubeSats for education and research; and military/defense satellites.

Loading next visibility...
Loading greatness...
COSMOS 2433 (GLONASS) details
NORAD ID32275
COSPAR ID
2007-052A
Orbit
MEO
Last TLE update14 hours ago
Origin
Flag of CISKVR/IACG (CIS)
ManufacturerResehetnev ISS
BusUragan
MotorUnknown
Mass1,450 kg wet, ~1,200 kg dry
Launch date (UTC)
2007-10-26 (17 years ago)
Launch vehicle
Proton-K/DM-2
Launch site
Tyuratam Missile And Space Complex (TTMTR)
Object type
Payload
Rocket body
Debris
Radar Cross SectionLarge (>1 m²)
Predictive object data (real-time)
Latitude65.80086°
Longitude-154.22333°
Altitude19,141.828 km
Speed3.954 km/s
Apparent Right ascension05h 45m 06s
Apparent Declination57° 15' 09"
Sunlit
Object is in daylight
Predictive observer data (real-time)
Local Sidereal Time21:31:16
Azimuth28.349° NE
Elevation18.116°
Doppler factor1
Orbital elements
Apogee19,133.506 km
Perigee19,125.104 km
Semi-major axis25,507.442 km
Eccentricity0.0001647
Inclination65.9341°
RAAN340.1975°
Arg. of periapsis194.9909°
True anomaly165.01258°
Mean anomaly165.0077°
Mean motion0.53277 °/min
BSTARUnknown
Period675.71 mins
Definitive object data (Epoch: 2024-06-22T20:24:02.668Z)
Latitude-0.00001°
Longitude122.66757°
Altitude19,134.354 km
Speed3.952 km/s
True Right ascension22h 40m 44s
True Declination0° 00' 00"
Sunlit
Object was in daylight at TLE epoch
TLE from 14 hours ago
0 COSMOS 2433 (GLONASS)
1 32275U 07052A   24174.85003088 -.00000043  00000-0  00000-0 0  9991
2 32275  65.9341 340.1975 0001647 194.9909 165.0077  2.13104072129623
Epoch: 2024-06-22T20:24Z
No data available

COSMOS 2433 (GLONASS) Visibility forecast

Observer location: 39.9160978°, -105.1181434, 0m alt.

COSMOS 2433 (GLONASS) is not visible in the next 10 days
Span
Click to sort rows by Start time (UTC) header in descending order
Start Az.
Max El. time (UTC)
Max El. Az.
Max El.
End time (UTC)
End Az.